Cloud_Cover
92 92 92 92 92 92 92 92 92 92 92 92 92 92 92 92 92 92 92 92 92 92 92 92 92 92 92 92 92 100 100 92 92 92 92 92 92 92 92 92 92 92 92 92 92 92 92 92 92 92 92 92 92 92 88 88 92 92 92 92 92 88 88 80 80 76 76 64 64 64 56 56 56 56 64 56 48 48 64 64 56 56 48 48 48 64
92 92 92 92 92 92 92 92 92 92 92 92 92 92 92 92 92 92 92 92 92 92 92 92 92 92 92 92 92 92 92 92 92 92 92 92 92 92 92 92 92 92 92 92 92 92 92 92 92 92 92 92 92 92 88 80 88 88 92 88 80 80 76 76 68 64 56 56 56 64 56 64 64 64 76 68 68 64 64 56 56 56 56 76 80 88
92 92 92 92 92 92 92 92 92 92 92 92 92 92 92 92 92 92 92 100 100 100 100 92 92 92 92 92 92 92 92 92 92 92 92 92 92 92 92 92 92 92 92 92 92 92 92 92 92 92 92 92 92 92 76 80 88 88 76 80 80 76 76 68 64 56 56 68 68 68 68 76 80 80 76 76 68 64 64 64 64 64 68 80 88 88
92 92 92 92 92 92 92 92 92 92 92 92 92 92 92 92 100 92 92 92 92 92 100 100 92 92 100 92 92 92 92 92 92 92 92 92 92 92 92 92 92 92 92 92 92 92 92 92 92 92 92 92 92 92 88 88 88 88 80 80 76 68 68 68 68 76 76 76 76 76 76 88 92 92 80 68 68 64 68 68 68 68 80 88 92 88
92 92 92 92 92 92 92 92 92 92 92 92 92 92 92 92 92 92 92 92 92 92 92 92 92 92 100 92 92 92 92 92 92 92 92 92 92 92 92 92 92 92 92 92 92 92 92 92 92 92 88 92 92 88 92 92 92 88 80 76 76 68 68 76 76 76 80 76 68 76 80 92 92 88 80 76 68 68 76 80 80 80 80 88 92 88
92 92 92 92 92 92 92 92 92 92 92 92 92 92 92 92 92 92 92 92 92 92 92 92 92 92 92 92 92 92 92 92 92 92 92 92 92 92 92 92 92 92 92 92 92 92 92 92 92 92 92 92 92 92 92 92 92 88 80 76 76 76 76 76 80 80 80 80 80 88 92 92 92 88 80 80 76 80 88 88 88 88 80 88 92 92
92 92 92 92 92 92 92 92 92 92 92 92 92 92 92 92 92 92 92 92 92 92 92 92 92 92 92 92 92 92 92 92 92 92 92 92 92 92 92 92 92 92 92 92 92 92 92 92 92 92 92 92 92 92 92 92 92 88 76 76 76 76 68 80 88 92 92 92 92 92 92 92 92 92 80 88 88 88 92 92 92 88 88 88 92 92
92 92 92 92 92 92 92 92 92 92 92 92 92 92 92 92 92 92 92 92 92 92 92 92 92 92 92 92 100 100 100 100 92 92 92 92 92 92 92 92 92 92 92 92 92 92 92 92 92 92 92 92 92 92 100 92 92 80 68 76 76 76 76 88 92 92 92 92 92 92 92 92 92 92 88 92 92 92 92 92 92 92 88 92 92 92
92 92 92 92 92 92 92 92 92 92 92 92 92 92 92 92 92 92 92 92 92 92 92 92 92 92 92 92 92 100 100 100 100 92 92 92 92 92 92 92 92 92 92 92 92 92 92 92 92 92 92 92 92 92 100 92 88 76 68 76 76 80 92 92 92 92 92 92 92 92 92 92 92 92 92 92 92 92 92 92 92 92 92 92 92 92
92 92 92 92 92 92 92 92 92 92 92 92 92 92 92 92 92 92 92 92 92 92 92 92 92 92 92 92 92 92 92 100 92 92 92 92 92 92 92 92 92 92 92 92 100 100 100 92 92 92 92 92 92 92 92 92 80 76 76 80 88 92 92 92 92 92 92 92 92 92 92 92 92 92 92 92 92 92 92 92 92 92 92 92 92 92
92 92 92 92 92 92 92 92 92 92 92 92 92 92 92 92 92 92 92 92 92 92 92 92 92 92 92 92 92 92 92 92 92 92 92 92 92 92 92 92 92 92 92 92 92 92 92 92 92 92 92 92 92 92 92 80 76 80 88 88 92 92 92 92 92 92 92 92 92 92 92 92 92 92 92 92 92 92 92 92 92 92 92 92 92 92
92 92 92 92 92 92 92 92 92 92 92 92 92 92 92 92 92 92 92 92 92 92 92 92 92 92 92 92 92 92 92 92 92 92 92 92 92 92 92 92 92 92 92 92 92 92 92 92 92 92 92 92 92 92 92 88 80 80 92 92 92 92 92 92 92 92 92 92 92 92 92 92 92 92 92 92 92 92 92 88 88 92 92 92 92 92
92 92 92 92 92 92 92 92 92 92 100 100 92 92 92 92 92 92 92 92 92 92 92 92 92 92 92 92 92 92 92 92 92 92 92 92 92 92 92 92 92 92 92 92 92 92 92 92 92 92 92 92 92 92 88 92 92 92 92 92 92 92 92 92 92 92 92 92 92 92 92 92 92 92 92 92 92 92 92 92 92 92 92 92 92 92
92 92 92 92 92 92 92 92 92 92 92 92 92 92 92 92 92 92 92 92 92 92 92 92 92 92 92 92 92 92 92 92 92 92 92 92 92 92 92 92 92 92 92 92 92 92 92 92 92 92 92 92 88 88 92 92 92 92 92 92 92 92 92 92 92 92 92 92 92 92 92 92 92 92 92 92 92 92 92 92 92 92 92 92 92 92
88 88 92 92 92 92 92 92 92 92 92 92 92 92 92 92 92 92 92 92 92 92 92 92 92 92 92 92 92 92 92 92 92 92 92 92 92 92 92 92 92 92 92 92 92 92 92 92 88 88 88 92 92 92 92 92 92 92 92 92 92 92 92 92 92 92 92 92 92 92 92 92 92 92 92 92 92 92 92 92 92 92 92 88 88 80
88 92 92 92 92 92 92 92 92 92 92 92 92 92 92 92 92 92 92 92 92 92 92 92 92 92 92 92 92 92 92 92 92 92 92 92 92 92 92 92 92 92 92 92 92 92 92 92 92 88 92 92 92 92 92 92 92 92 92 92 92 92 92 92 92 92 92 92 92 92 92 92 92 92 92 92 92 92 92 92 92 88 76 76 76 76
92 92 92 92 92 92 92 92 92 92 92 92 92 92 92 92 92 92 92 92 92 92 92 92 92 92 92 92 92 92 92 92 92 92 92 92 92 92 92 92 92 92 92 88 88 92 92 92 92 92 92 92 92 92 92 92 92 92 92 92 92 92 92 92 92 92 92 92 92 92 92 92 92 92 92 92 92 92 92 92 88 88 80 76 76 80
92 92 92 92 92 92 92 92 92 92 92 92 92 92 92 92 92 92 92 92 92 92 92 92 92 92 92 92 92 92 92 92 92 92 92 92 92 92 92 88 88 92 92 92 92 92 92 92 92 92 92 92 92 92 92 92 92 92 92 92 92 92 92 92 92 92 92 92 92 92 92 92 92 92 92 92 92 92 92 88 88 88 88 92 92 92
92 92 92 92 92 92 92 92 92 92 92 92 92 92 92 92 92 92 92 92 92 92 92 92 92 92 92 92 92 92 92 92 92 92 92 92 88 80 80 88 92 92 92 92 92 92 92 92 92 92 92 92 92 92 92 92 92 92 92 92 92 92 92 92 92 92 92 92 92 92 92 92 92 92 92 92 92 92 88 88 80 80 80 92 92 92
92 92 92 92 92 92 92 92 92 92 92 92 92 92 92 92 92 92 92 92 92 92 92 88 88 92 92 92 92 92 92 92 92 92 92 88 80 80 88 92 92 92 92 92 92 92 92 92 92 92 92 92 92 92 92 92 92 92 92 92 92 92 92 92 92 92 92 92 92 92 92 92 92 92 92 92 88 88 88 88 88 88 88 92 92 92
92 92 92 92 92 92 92 92 92 92 92 92 92 92 92 92 92 92 92 92 92 92 92 92 92 92 92 92 92 92 92 92 92 92 92 92 92 92 92 92 92 92 92 92 92 92 92 92 92 92 92 92 92 92 92 92 92 92 92 92 92 92 92 92 92 92 92 92 92 92 92 92 92 92 92 92 88 88 80 80 88 92 92 92 92 92
92 92 92 92 92 92 92 92 92 92 92 92 92 92 92 92 92 92 92 92 92 92 92 92 92 92 92 92 92 92 92 92 92 92 92 92 92 92 92 92 88 88 92 92 92 92 88 92 92 92 92 92 92 92 92 92 92 92 92 92 92 92 92 92 92 92 92 92 92 92 88 92 92 92 88 88 80 76 80 76 80 92 92 92 92 92
92 92 92 92 92 88 92 92 92 92 92 92 92 92 92 92 92 92 92 92 92 92 92 92 88 88 92 92 92 92 92 92 92 92 92 92 92 92 92 92 88 88 92 92 92 92 80 88 92 92 92 88 88 92 92 92 92 92 92 92 92 92 92 92 92 92 88 88 88 88 88 88 88 88 88 80 68 64 68 76 80 92 92 92 92 92
92 92 92 92 92 92 92 92 92 92 92 92 92 92 92 92 92 92 100 92 92 92 92 92 92 92 92 92 92 92 92 92 92 92 92 92 92 92 92 92 92 92 92 92 92 88 76 88 92 92 92 88 88 92 92 92 92 92 92 92 92 92 92 92 92 88 88 88 88 88 76 80 80 80 68 64 64 56 56 68 80 92 92 88 88 92
92 92 92 92 92 92 92 92 92 92 92 92 92 92 92 92 92 92 92 92 92 92 92 92 92 92 92 92 92 92 92 92 92 92 92 92 92 92 92 92 92 92 88 92 92 88 76 80 88 92 92 88 88 92 92 92 92 92 92 92 92 92 92 88 88 88 88 88 80 76 68 68 68 68 64 56 56 48 56 76 80 76 80 64 64 76
92 92 92 92 92 92 92 92 92 92 92 92 92 92 92 92 92 92 92 92 92 92 92 92 92 92 92 92 92 92 92 92 92 92 92 92 92 92 92 92 88 80 80 92 92 92 88 76 88 92 92 92 92 92 92 92 92 92 92 92 92 92 92 92 88 88 80 80 76 76 76 68 68 68 64 56 48 44 44 44 36 32 32 24 12 12
92 92 92 92 92 92 92 92 92 92 92 92 92 92 92 92 92 92 92 92 92 92 92 92 92 92 92 92 92 92 92 92 92 92 92 92 92 92 92 92 92 80 80 88 92 92 92 80 88 92 92 92 92 92 92 92 92 92 92 92 92 92 92 88 88 80 68 68 68 68 68 68 68 64 44 44 36 32 32 32 24 20 20 8 8 8
68 80 88 88 88 88 92 92 92 92 92 92 92 92 92 92 92 92 92 92 92 92 88 92 92 92 92 92 92 92 92 92 92 92 92 92 92 92 92 92 92 88 76 88 92 92 92 88 92 92 92 92 92 92 92 92 92 92 92 92 92 88 88 80 80 76 68 76 76 68 64 64 64 48 24 24 20 20 20 20 12 8 8 8 8 8
48 56 64 68 64 68 92 92 92 92 92 92 92 92 92 92 92 92 92 92 92 92 88 92 92 92 92 92 92 92 92 92 92 92 92 92 92 92 92 92 92 88 80 92 92 92 92 92 92 92 92 92 92 92 92 92 92 92 92 92 92 88 80 76 76 68 64 68 68 64 48 44 36 32 20 12 12 12 12 12 12 12 12 12 12 12
36 48 44 48 48 64 80 88 92 92 92 92 92 92 92 92 92 92 92 92 92 92 92 92 92 92 92 92 92 92 92 92 92 92 92 92 92 92 92 92 92 88 92 92 92 92 92 92 92 88 80 80 88 92 92 92 92 92 92 92 92 88 80 88 80 68 68 64 64 56 44 36 32 24 20 20 20 20 24 20 20 24 20 20 20 24
24 36 36 44 44 48 64 68 76 80 80 92 92 92 92 92 92 92 92 92 92 92 92 92 92 92 92 92 92 92 92 92 92 92 92 92 88 80 92 92 88 80 92 92 92 88 76 88 92 88 76 80 88 92 92 92 88 88 92 88 88 88 88 88 80 76 68 68 64 56 44 36 36 32 36 32 32 24 32 32 32 24 24 24 32 32
48 44 32 32 36 44 44 44 48 56 48 64 76 88 92 92 92 92 92 92 92 92 92 92 92 92 92 92 92 92 92 92 92 92 92 80 76 80 92 92 80 76 92 92 92 80 64 76 88 92 92 88 88 88 88 88 88 88 80 88 88 88 88 88 80 76 68 76 76 64 56 48 48 48 48 44 36 32 32 32 32 32 32 36 36 32
76 64 48 44 44 48 36 32 36 36 36 44 48 68 88 92 92 92 92 92 92 92 92 92 92 92 88 88 92 88 88 88 92 92 92 80 80 88 88 88 88 80 88 88 88 88 80 80 88 88 88 88 88 88 88 88 88 88 80 88 88 80 80 80 80 80 76 76 76 76 68 64 64 56 56 48 44 36 36 32 36 44 44 56 56 44
80 68 68 64 64 56 48 44 36 36 44 44 44 44 64 68 80 92 92 92 92 92 92 92 92 88 88 88 88 88 92 88 88 88 88 88 88 88 88 88 88 88 88 88 88 88 88 88 88 88 88 88 88 88 88 88 80 76 80 88 88 80 68 80 80 76 76 76 76 76 68 68 64 64 56 56 48 44 48 48 48 48 56 64 56 44
68 68 68 68 68 68 64 64 56 48 56 56 48 48 48 48 64 80 92 92 92 92 92 92 92 92 92 92 92 92 92 88 88 88 88 88 88 88 88 88 88 88 88 76 76 88 88 88 88 88 88 88 88 88 88 88 76 64 68 80 88 80 76 80 80 76 64 76 76 68 64 64 56 56 56 56 56 56 56 56 56 56 48 48 36 24
68 68 68 68 76 76 68 64 64 64 68 64 56 56 56 64 68 80 88 88 92 92 92 92 92 92 92 92 92 92 92 92 88 88 88 80 88 88 88 80 80 88 88 68 76 88 80 80 80 88 88 88 80 76 80 80 80 68 68 64 76 80 80 76 76 76 68 64 64 68 68 56 56 56 56 56 56 48 44 44 44 44 32 24 20 8
68 64 64 68 68 68 64 64 68 68 68 68 64 64 64 68 80 88 88 88 92 92 92 92 92 92 88 92 92 92 92 92 92 88 88 88 88 88 80 80 80 80 88 68 68 76 80 80 76 76 80 80 80 76 80 80 80 76 76 68 76 76 76 76 76 76 68 56 56 56 64 48 44 44 44 36 36 36 24 24 24 24 12 12 8 8
76 68 68 68 64 56 56 64 64 64 56 64 64 68 76 80 88 92 92 92 92 92 92 92 92 92 88 88 88 88 88 88 88 88 92 92 92 92 88 88 88 88 80 76 76 76 76 80 80 76 80 80 80 80 80 80 80 76 76 76 76 76 68 68 68 68 64 56 48 44 44 36 36 36 32 24 20 20 20 12 12 12 8 8 8 8
64 76 68 68 68 64 56 48 48 48 56 64 68 76 80 88 88 92 92 92 92 92 92 92 92 92 88 88 88 88 88 88 88 88 92 92 92 92 92 92 92 88 80 80 76 76 76 76 80 80 80 80 76 76 76 88 88 88 76 88 76 64 64 64 64 64 64 64 56 44 36 32 32 24 24 20 20 20 24 20 12 12 12 12 12 12
44 64 76 68 64 56 56 56 56 56 68 64 64 68 76 68 76 76 80 92 92 88 88 92 92 92 92 88 88 88 88 80 80 88 92 92 92 92 92 80 80 80 80 80 80 76 76 76 76 80 88 88 88 88 80 88 88 88 88 80 80 76 64 64 64 64 64 56 56 48 32 32 32 32 24 32 32 32 36 36 32 24 20 24 24 32
44 48 68 64 64 64 68 68 68 68 76 68 68 64 64 64 64 64 68 68 68 76 92 92 92 92 88 88 80 76 80 80 80 80 80 80 80 80 80 80 80 80 80 76 76 76 76 76 80 88 88 88 88 88 88 88 88 88 88 88 80 68 64 64 56 56 56 48 48 48 48 44 36 36 36 36 36 36 44 44 36 32 24 20 24 32
36 32 20 36 56 68 80 80 80 76 68 76 76 68 64 56 56 56 56 56 56 64 76 88 88 88 88 88 76 68 76 76 80 80 80 80 80 80 80 80 80 80 80 76 76 80 80 76 80 88 88 88 92 92 88 88 88 88 92 80 80 80 64 76 64 48 56 48 48 48 48 44 36 32 32 36 36 32 32 32 32 32 24 24 20 20
12 20 20 36 56 68 76 76 76 76 80 76 76 68 76 76 56 44 44 48 64 64 48 48 64 68 68 80 68 64 76 68 68 76 88 76 76 80 80 76 80 80 76 76 68 68 68 76 80 88 88 88 92 92 88 88 88 80 64 80 88 88 88 64 44 44 48 48 44 44 48 44 36 32 32 24 24 32 32 24 24 24 20 20 20 20
44 44 44 48 44 44 48 56 68 76 80 80 80 80 80 80 80 76 56 48 64 68 64 36 32 32 36 64 76 76 68 56 64 76 88 88 80 76 68 68 76 76 76 76 68 68 80 80 80 80 92 92 88 88 88 88 88 80 56 68 76 80 80 88 80 68 56 48 36 32 36 36 36 32 32 24 20 20 20 20 20 12 12 12 12 12
48 48 48 56 56 48 48 56 68 76 80 80 80 80 88 88 88 80 76 68 68 64 64 36 24 24 32 48 68 76 56 56 64 68 88 80 88 88 68 68 68 68 76 76 76 80 88 88 76 68 68 80 88 80 80 88 76 64 64 48 48 64 80 88 88 76 56 44 32 24 32 36 36 32 24 20 12 12 12 12 12 12 12 8 8 8
48 48 56 64 56 56 56 64 68 76 80 88 92 92 92 92 92 92 92 80 76 64 48 44 36 36 44 56 56 56 64 76 76 80 80 76 76 80 92 92 88 88 88 76 76 76 68 80 76 64 64 64 64 56 68 68 64 48 44 44 44 56 80 80 80 68 36 36 32 24 24 20 20 24 32 32 20 8 8 8 8 12 12 8 8 8
56 56 56 68 68 68 68 68 68 68 76 80 88 92 92 92 92 92 88 92 88 80 68 64 56 56 56 64 64 56 56 56 64 68 80 76 68 76 88 88 88 80 80 80 76 76 76 68 64 64 64 64 56 44 36 48 48 48 44 44 48 56 68 56 44 36 32 32 32 32 20 12 24 36 44 68 48 20 12 8 8 8 8 0 0 0
64 68 68 68 68 68 68 76 68 68 64 76 80 80 88 92 92 88 92 88 80 76 68 68 76 76 80 80 76 68 68 56 64 68 76 68 76 76 80 88 88 80 76 76 68 64 64 64 56 48 48 48 48 44 32 32 36 44 44 44 56 64 56 44 24 20 24 32 24 20 20 20 48 76 76 76 76 68 44 20 8 8 0 0 0 0
44 56 68 56 48 56 64 68 68 64 64 68 76 80 80 88 88 88 92 88 76 68 68 68 76 80 88 80 80 80 80 76 64 48 48 44 48 64 76 80 68 64 64 64 44 24 32 36 36 32 36 44 44 36 36 32 36 44 44 48 44 44 36 24 24 24 32 32 24 20 12 20 48 80 76 76 76 68 64 36 20 8 0 0 0 0
24 36 44 32 32 44 48 56 68 76 76 68 68 76 80 80 88 88 80 80 76 76 88 76 80 88 88 80 80 76 64 68 56 36 20 48 56 64 80 80 56 32 24 24 20 8 8 12 8 8 20 24 24 24 24 24 32 36 36 36 32 20 24 24 24 20 24 24 24 20 20 32 56 80 76 76 76 68 44 48 32 12 0 0 0 0
24 24 24 20 24 32 36 64 76 88 88 88 76 76 88 76 80 88 88 88 88 88 88 80 80 80 80 80 76 64 44 48 44 36 32 68 76 76 76 76 64 48 32 20 20 12 8 0 0 0 0 0 0 8 0 8 8 0 8 12 12 8 8 12 20 24 56 36 36 44 36 32 56 80 80 76 76 76 76 76 36 0 0 0 0 0